| time (UTC) | temp F | wind direction | speed MPH | gust MPH | rain 1hr in | rain 24hr in | rain mn in | humidity % | barometer mb |
| 20260904221832 | 83 | 279 | 2.0 | 7.0 | 0.00 | 0.00 | 0.00 | 43 | 1010.9 |
| 20260904221351 | 83 | 319 | 1.0 | 3.0 | 0.00 | 0.00 | 0.00 | 43 | 1010.9 |
| 20260904220832 | 83 | 283 | 0.0 | 4.0 | 0.00 | 0.00 | 0.00 | 43 | 1010.9 |
| 20260904220329 | 83 | 278 | 2.0 | 8.0 | 0.00 | 0.00 | 0.00 | 43 | 1010.9 |
| 20260904215832 | 83 | 205 | 2.0 | 8.0 | 0.00 | 0.00 | 0.00 | 42 | 1011.0 |
| 20260904215333 | 84 | 210 | 2.0 | 8.0 | 0.00 | 0.00 | 0.00 | 43 | 1011.0 |
| 20260904214833 | 84 | 248 | 3.0 | 8.0 | 0.00 | 0.00 | 0.00 | 42 | 1011.0 |
| 20260904214328 | 84 | 224 | 0.0 | 6.0 | 0.00 | 0.00 | 0.00 | 42 | 1011.0 |
| 20260904213847 | 84 | 174 | 1.0 | 6.0 | 0.00 | 0.00 | 0.00 | 43 | 1011.1 |
| 20260904213348 | 83 | 151 | 3.0 | 6.0 | 0.00 | 0.00 | 0.00 | 44 | 1011.1 |
| 20260904212828 | 83 | 25 | 1.0 | 6.0 | 0.00 | 0.00 | 0.00 | 44 | 1011.1 |
| 20260904212333 | 84 | 169 | 3.0 | 6.0 | 0.00 | 0.00 | 0.00 | 45 | 1011.1 |
| 20260904211858 | 84 | 238 | 4.0 | 6.0 | 0.00 | 0.00 | 0.00 | 44 | 1011.1 |
| 20260904211337 | 83 | 190 | 2.0 | 4.0 | 0.00 | 0.00 | 0.00 | 46 | 1011.1 |
| 20260904210836 | 82 | 284 | 2.0 | 5.0 | 0.00 | 0.00 | 0.00 | 46 | 1011.1 |
| 20260904210333 | 83 | 287 | 1.0 | 6.0 | 0.00 | 0.00 | 0.00 | 46 | 1011.2 |
| 20260904205851 | 82 | 144 | 2.0 | 6.0 | 0.00 | 0.00 | 0.00 | 46 | 1011.2 |
| 20260904205329 | 83 | 267 | 1.0 | 5.0 | 0.00 | 0.00 | 0.00 | 46 | 1011.2 |
| 20260904204831 | 83 | 207 | 2.0 | 5.0 | 0.00 | 0.00 | 0.00 | 47 | 1011.3 |
| 20260904203830 | 83 | 286 | 2.0 | 5.0 | 0.00 | 0.00 | 0.00 | 47 | 1011.4 |
| 20260904203331 | 83 | 172 | 1.0 | 5.0 | 0.00 | 0.00 | 0.00 | 48 | 1011.4 |
| 20260904202830 | 83 | 219 | 0.0 | 4.0 | 0.00 | 0.00 | 0.00 | 49 | 1011.5 |
| 20260904202351 | 82 | 242 | 1.0 | 5.0 | 0.00 | 0.00 | 0.00 | 50 | 1011.4 |
| 20260904201826 | 82 | 278 | 3.0 | 8.0 | 0.00 | 0.00 | 0.00 | 49 | 1011.4 |
| 20260904201326 | 82 | 227 | 2.0 | 8.0 | 0.00 | 0.00 | 0.00 | 50 | 1011.4 |
| 20260904200846 | 82 | 274 | 2.0 | 5.0 | 0.00 | 0.00 | 0.00 | 52 | 1011.5 |
| 20260904200344 | 81 | 222 | 2.0 | 5.0 | 0.00 | 0.00 | 0.00 | 51 | 1011.5 |
| 20260904195820 | 81 | 281 | 2.0 | 5.0 | 0.00 | 0.00 | 0.00 | 53 | 1011.6 |
| 20260904195338 | 80 | 163 | 1.0 | 5.0 | 0.00 | 0.00 | 0.00 | 54 | 1011.6 |
| 20260904194858 | 80 | 96 | 0.0 | 3.0 | 0.00 | 0.00 | 0.00 | 55 | 1011.7 |
| 20260904194338 | 80 | 162 | 2.0 | 4.0 | 0.00 | 0.00 | 0.00 | 56 | 1011.8 |
| 20260904193821 | 80 | 265 | 1.0 | 4.0 | 0.00 | 0.00 | 0.00 | 54 | 1011.9 |
| 20260904193340 | 81 | 136 | 2.0 | 4.0 | 0.00 | 0.00 | 0.00 | 53 | 1012.0 |
| 20260904192854 | 80 | 141 | 1.0 | 7.0 | 0.00 | 0.00 | 0.00 | 53 | 1012.1 |
| 20260904191831 | 80 | 161 | 2.0 | 6.0 | 0.00 | 0.00 | 0.00 | 54 | 1012.3 |
| 20260904191335 | 79 | 264 | 2.0 | 6.0 | 0.00 | 0.00 | 0.00 | 57 | 1012.4 |
| 20260904190835 | 79 | 135 | 2.0 | 6.0 | 0.00 | 0.00 | 0.00 | 58 | 1012.4 |
| 20260904190335 | 79 | 194 | 1.0 | 5.0 | 0.00 | 0.00 | 0.00 | 59 | 1012.4 |
| 20260904185855 | 79 | 145 | 2.0 | 6.0 | 0.00 | 0.00 | 0.00 | 58 | 1012.4 |
| 20260904185332 | 79 | 161 | 3.0 | 6.0 | 0.00 | 0.00 | 0.00 | 57 | 1012.5 |
| 20260904184831 | 79 | 179 | 0.0 | 5.0 | 0.00 | 0.00 | 0.00 | 60 | 1012.5 |
| 20260904184351 | 78 | 238 | 2.0 | 5.0 | 0.00 | 0.00 | 0.00 | 60 | 1012.6 |
| 20260904183834 | 78 | 271 | 2.0 | 5.0 | 0.00 | 0.00 | 0.00 | 61 | 1012.6 |
| 20260904183332 | 78 | 172 | 1.0 | 4.0 | 0.00 | 0.00 | 0.00 | 62 | 1012.6 |
| 20260904182834 | 78 | 262 | 1.0 | 4.0 | 0.00 | 0.00 | 0.00 | 61 | 1012.7 |
| 20260904182330 | 77 | 167 | 1.0 | 3.0 | 0.00 | 0.00 | 0.00 | 63 | 1012.6 |
| 20260904181830 | 77 | 25 | 0.0 | 5.0 | 0.00 | 0.00 | 0.00 | 65 | 1012.6 |
| 20260904181328 | 76 | 127 | 1.0 | 6.0 | 0.00 | 0.00 | 0.00 | 65 | 1012.7 |
| 20260904180826 | 75 | 180 | 2.0 | 6.0 | 0.00 | 0.00 | 0.00 | 66 | 1012.7 |
| 20260904180324 | 75 | 215 | 3.0 | 6.0 | 0.00 | 0.00 | 0.00 | 66 | 1012.6 |
| 20260904175827 | 75 | 169 | 4.0 | 5.0 | 0.00 | 0.00 | 0.00 | 65 | 1012.7 |
| 20260904175327 | 76 | 201 | 2.0 | 4.0 | 0.00 | 0.00 | 0.00 | 65 | 1012.8 |
| 20260904174828 | 75 | 172 | 0.0 | 4.0 | 0.00 | 0.00 | 0.00 | 67 | 1012.8 |
| 20260904174329 | 75 | 252 | 2.0 | 4.0 | 0.00 | 0.00 | 0.00 | 66 | 1012.8 |
| 20260904173828 | 75 | 143 | 2.0 | 4.0 | 0.00 | 0.00 | 0.00 | 66 | 1012.8 |
| 20260904173326 | 74 | 244 | 2.0 | 6.0 | 0.00 | 0.00 | 0.00 | 68 | 1012.7 |
| 20260904172847 | 74 | 205 | 2.0 | 6.0 | 0.00 | 0.00 | 0.00 | 68 | 1012.7 |
| 20260904172326 | 75 | 141 | 1.0 | 5.0 | 0.00 | 0.00 | 0.00 | 68 | 1012.7 |
| 20260904171825 | 74 | 122 | 2.0 | 5.0 | 0.00 | 0.00 | 0.00 | 69 | 1012.6 |
| 20260904171326 | 73 | 183 | 1.0 | 6.0 | 0.00 | 0.00 | 0.00 | 70 | 1012.6 |
| 20260904170824 | 74 | 131 | 3.0 | 6.0 | 0.00 | 0.00 | 0.00 | 68 | 1012.6 |
| 20260904170322 | 74 | 176 | 1.0 | 6.0 | 0.00 | 0.00 | 0.00 | 69 | 1012.5 |
| 20260904165823 | 74 | 245 | 1.0 | 4.0 | 0.00 | 0.00 | 0.00 | 68 | 1012.5 |
| 20260904165324 | 73 | 275 | 2.0 | 5.0 | 0.00 | 0.00 | 0.00 | 68 | 1012.3 |
| 20260904164829 | 73 | 197 | 2.0 | 5.0 | 0.00 | 0.00 | 0.00 | 68 | 1012.3 |
| 20260904164327 | 73 | 165 | 2.0 | 3.0 | 0.00 | 0.00 | 0.00 | 69 | 1012.3 |
| 20260904163846 | 73 | 149 | 1.0 | 4.0 | 0.00 | 0.00 | 0.00 | 70 | 1012.3 |
| 20260904163326 | 72 | 267 | 1.0 | 4.0 | 0.00 | 0.00 | 0.00 | 70 | 1012.2 |
| 20260904162825 | 72 | 162 | 1.0 | 3.0 | 0.00 | 0.00 | 0.00 | 70 | 1012.2 |
| 20260904162326 | 72 | 154 | 2.0 | 4.0 | 0.00 | 0.00 | 0.00 | 69 | 1012.1 |
| 20260904161825 | 72 | 159 | 1.0 | 4.0 | 0.00 | 0.00 | 0.00 | 71 | 1011.9 |
| 20260904161345 | 71 | 154 | 1.0 | 3.0 | 0.00 | 0.00 | 0.00 | 71 | 1011.9 |
| 20260904160822 | 71 | 151 | 0.0 | 1.0 | 0.00 | 0.00 | 0.00 | 72 | 1011.9 |
| 20260904160321 | 71 | 143 | 0.0 | 2.0 | 0.00 | 0.00 | 0.00 | 73 | 1011.9 |
| 20260904155840 | 70 | 160 | 0.0 | 2.0 | 0.00 | 0.00 | 0.00 | 74 | 1011.9 |
| 20260904155359 | 71 | 146 | 0.0 | 2.0 | 0.00 | 0.00 | 0.00 | 75 | 1012.0 |
| 20260904154856 | 70 | 141 | 0.0 | 2.0 | 0.00 | 0.00 | 0.00 | 76 | 1012.0 |
| 20260904154335 | 70 | 172 | 0.0 | 2.0 | 0.00 | 0.00 | 0.00 | 77 | 1012.1 |
| 20260904153837 | 70 | 219 | 0.0 | 2.0 | 0.00 | 0.00 | 0.00 | 77 | 1012.2 |
| 20260904153355 | 70 | 197 | 0.0 | 2.0 | 0.00 | 0.00 | 0.00 | 77 | 1012.2 |
| 20260904152833 | 69 | 172 | 0.0 | 2.0 | 0.00 | 0.00 | 0.00 | 79 | 1012.2 |
| 20260904152332 | 69 | 124 | 0.0 | 2.0 | 0.00 | 0.00 | 0.00 | 79 | 1012.1 |
| 20260904151834 | 69 | 127 | 1.0 | 2.0 | 0.00 | 0.00 | 0.00 | 79 | 1012.2 |
| 20260904151332 | 68 | 154 | 1.0 | 3.0 | 0.00 | 0.00 | 0.00 | 80 | 1012.1 |
| 20260904150836 | 68 | 148 | 0.0 | 3.0 | 0.00 | 0.00 | 0.00 | 80 | 1012.0 |
| 20260904150331 | 69 | 147 | 1.0 | 2.0 | 0.00 | 0.00 | 0.00 | 79 | 1012.0 |
| 20260904145830 | 68 | 148 | 0.0 | 0.0 | 0.00 | 0.00 | 0.00 | 81 | 1011.9 |
| 20260904145327 | 68 | 146 | 0.0 | 0.0 | 0.00 | 0.00 | 0.00 | 82 | 1011.9 |
| 20260904144827 | 67 | 146 | 0.0 | 1.0 | 0.00 | 0.00 | 0.00 | 82 | 1011.9 |
| 20260904144324 | 67 | 120 | 0.0 | 1.0 | 0.00 | 0.00 | 0.00 | 82 | 1011.9 |
| 20260904143826 | 67 | 149 | 0.0 | 0.0 | 0.00 | 0.00 | 0.00 | 84 | 1011.9 |
| 20260904143323 | 66 | 150 | 0.0 | 0.0 | 0.00 | 0.00 | 0.00 | 87 | 1011.8 |
| 20260904142823 | 65 | 150 | 0.0 | 0.0 | 0.00 | 0.00 | 0.00 | 92 | 1011.6 |
| 20260904142323 | 64 | 150 | 0.0 | 0.0 | 0.00 | 0.00 | 0.00 | 92 | 1011.5 |
| 20260904141841 | 63 | 150 | 0.0 | 0.0 | 0.00 | 0.00 | 0.00 | 93 | 1011.4 |
| 20260904141337 | 62 | 150 | 0.0 | 0.0 | 0.00 | 0.00 | 0.00 | 92 | 1011.4 |
| 20260904140837 | 61 | 150 | 0.0 | 0.0 | 0.00 | 0.00 | 0.00 | 92 | 1011.5 |
| 20260904140336 | 61 | 150 | 0.0 | 0.0 | 0.00 | 0.00 | 0.00 | 92 | 1011.5 |
| 20260904135835 | 61 | 150 | 0.0 | 0.0 | 0.00 | 0.00 | 0.00 | 92 | 1011.5 |
| 20260904135333 | 60 | 150 | 0.0 | 0.0 | 0.00 | 0.00 | 0.00 | 92 | 1011.4 |
| 20260904134831 | 60 | 150 | 0.0 | 0.0 | 0.00 | 0.00 | 0.00 | 92 | 1011.4 |
| 20260904134335 | 60 | 150 | 0.0 | 0.0 | 0.00 | 0.00 | 0.00 | 92 | 1011.3 |
| 20260904133838 | 60 | 150 | 0.0 | 0.0 | 0.00 | 0.00 | 0.00 | 92 | 1011.3 |
| 20260904133335 | 60 | 150 | 0.0 | 0.0 | 0.00 | 0.00 | 0.00 | 92 | 1011.3 |
| 20260904132837 | 60 | 150 | 0.0 | 0.0 | 0.00 | 0.00 | 0.00 | 92 | 1011.3 |
| 20260904132338 | 61 | 150 | 0.0 | 0.0 | 0.00 | 0.00 | 0.00 | 92 | 1011.3 |
| 20260904131859 | 61 | 150 | 0.0 | 0.0 | 0.00 | 0.00 | 0.00 | 92 | 1011.4 |
| 20260904131338 | 61 | 150 | 0.0 | 0.0 | 0.00 | 0.00 | 0.00 | 91 | 1011.4 |
| 20260904130834 | 61 | 150 | 0.0 | 0.0 | 0.00 | 0.00 | 0.00 | 91 | 1011.3 |
| 20260904130354 | 61 | 150 | 0.0 | 0.0 | 0.00 | 0.00 | 0.00 | 91 | 1011.3 |
| 20260904125833 | 61 | 150 | 0.0 | 0.0 | 0.00 | 0.00 | 0.00 | 91 | 1011.2 |
| 20260904125352 | 61 | 150 | 0.0 | 0.0 | 0.00 | 0.00 | 0.00 | 91 | 1011.2 |
| 20260904124829 | 61 | 150 | 0.0 | 0.0 | 0.00 | 0.00 | 0.00 | 91 | 1011.2 |
| 20260904124330 | 61 | 150 | 0.0 | 0.0 | 0.00 | 0.00 | 0.00 | 90 | 1011.2 |
| 20260904123853 | 61 | 149 | 0.0 | 0.0 | 0.00 | 0.00 | 0.00 | 90 | 1011.1 |
| 20260904123329 | 61 | 149 | 0.0 | 0.0 | 0.00 | 0.00 | 0.00 | 90 | 1011.0 |
| 20260904122847 | 62 | 150 | 0.0 | 0.0 | 0.00 | 0.00 | 0.00 | 90 | 1011.0 |
| 20260904122324 | 62 | 150 | 0.0 | 0.0 | 0.00 | 0.00 | 0.00 | 89 | 1011.0 |
| 20260904121824 | 62 | 150 | 0.0 | 0.0 | 0.00 | 0.00 | 0.00 | 89 | 1011.0 |
| 20260904121321 | 62 | 150 | 0.0 | 0.0 | 0.00 | 0.00 | 0.00 | 89 | 1010.9 |
| 20260904120825 | 63 | 150 | 0.0 | 0.0 | 0.00 | 0.00 | 0.00 | 89 | 1010.9 |
| 20260904120326 | 63 | 150 | 0.0 | 0.0 | 0.00 | 0.00 | 0.00 | 89 | 1010.9 |
| 20260904115846 | 63 | 150 | 0.0 | 0.0 | 0.00 | 0.00 | 0.00 | 89 | 1011.0 |
| 20260904115326 | 63 | 149 | 0.0 | 0.0 | 0.00 | 0.00 | 0.00 | 88 | 1011.1 |
| 20260904114825 | 63 | 150 | 0.0 | 0.0 | 0.00 | 0.00 | 0.00 | 88 | 1011.1 |
| 20260904114343 | 63 | 149 | 0.0 | 0.0 | 0.00 | 0.00 | 0.00 | 88 | 1011.1 |
| 20260904113841 | 64 | 149 | 0.0 | 0.0 | 0.00 | 0.00 | 0.00 | 88 | 1011.0 |
| 20260904113320 | 64 | 149 | 0.0 | 0.0 | 0.00 | 0.00 | 0.00 | 88 | 1011.0 |
| 20260904112823 | 64 | 150 | 0.0 | 0.0 | 0.00 | 0.00 | 0.00 | 88 | 1010.9 |
| 20260904112336 | 64 | 150 | 0.0 | 0.0 | 0.00 | 0.00 | 0.00 | 88 | 1010.9 |
| 20260904111837 | 64 | 150 | 0.0 | 0.0 | 0.00 | 0.00 | 0.00 | 88 | 1011.0 |
| 20260904111338 | 64 | 150 | 0.0 | 0.0 | 0.00 | 0.00 | 0.00 | 87 | 1010.9 |
| 20260904110835 | 64 | 150 | 0.0 | 0.0 | 0.00 | 0.00 | 0.00 | 88 | 1011.0 |
| 20260904110337 | 64 | 150 | 0.0 | 0.0 | 0.00 | 0.00 | 0.00 | 88 | 1011.0 |
| 20260904105819 | 64 | 149 | 0.0 | 0.0 | 0.00 | 0.00 | 0.00 | 88 | 1011.0 |
| 20260904105335 | 64 | 150 | 0.0 | 0.0 | 0.00 | 0.00 | 0.00 | 88 | 1011.0 |
| 20260904104835 | 64 | 149 | 0.0 | 0.0 | 0.00 | 0.00 | 0.00 | 88 | 1011.0 |
| 20260904104354 | 64 | 149 | 0.0 | 0.0 | 0.00 | 0.00 | 0.00 | 88 | 1011.0 |
| 20260904103833 | 64 | 150 | 0.0 | 0.0 | 0.00 | 0.00 | 0.00 | 88 | 1011.0 |
| 20260904103334 | 64 | 149 | 0.0 | 0.0 | 0.00 | 0.00 | 0.00 | 88 | 1011.0 |
| 20260904102853 | 64 | 149 | 0.0 | 0.0 | 0.00 | 0.00 | 0.00 | 88 | 1011.1 |
| 20260904102332 | 64 | 149 | 0.0 | 0.0 | 0.00 | 0.00 | 0.00 | 89 | 1011.1 |
| 20260904101833 | 64 | 149 | 0.0 | 0.0 | 0.00 | 0.00 | 0.00 | 89 | 1010.9 |
| 20260904101352 | 64 | 149 | 0.0 | 0.0 | 0.00 | 0.00 | 0.00 | 89 | 1011.0 |
| 20260904100831 | 64 | 149 | 0.0 | 0.0 | 0.00 | 0.00 | 0.00 | 89 | 1010.9 |
| 20260904100346 | 64 | 149 | 0.0 | 0.0 | 0.00 | 0.00 | 0.00 | 89 | 1011.0 |
| 20260904095825 | 64 | 149 | 0.0 | 0.0 | 0.00 | 0.00 | 0.00 | 90 | 1011.0 |
| 20260904095324 | 64 | 173 | 0.0 | 0.0 | 0.00 | 0.00 | 0.00 | 90 | 1010.9 |
| 20260904094826 | 63 | 173 | 0.0 | 1.0 | 0.00 | 0.00 | 0.00 | 90 | 1011.0 |
| 20260904094325 | 63 | 173 | 0.0 | 1.0 | 0.00 | 0.00 | 0.00 | 91 | 1011.0 |
| 20260904093826 | 63 | 228 | 0.0 | 1.0 | 0.00 | 0.00 | 0.00 | 91 | 1011.0 |
| 20260904093324 | 62 | 228 | 0.0 | 0.0 | 0.00 | 0.00 | 0.00 | 90 | 1011.0 |
| 20260904092825 | 62 | 228 | 0.0 | 0.0 | 0.00 | 0.00 | 0.00 | 90 | 1010.9 |
| 20260904092321 | 62 | 228 | 0.0 | 0.0 | 0.00 | 0.00 | 0.00 | 90 | 1010.9 |
| 20260904091821 | 62 | 228 | 0.0 | 0.0 | 0.00 | 0.00 | 0.00 | 90 | 1010.9 |
| 20260904091339 | 62 | 228 | 0.0 | 0.0 | 0.00 | 0.00 | 0.00 | 90 | 1010.9 |
| 20260904090821 | 62 | 228 | 0.0 | 0.0 | 0.00 | 0.00 | 0.00 | 90 | 1010.9 |
| 20260904090325 | 62 | 228 | 0.0 | 0.0 | 0.00 | 0.00 | 0.00 | 90 | 1010.8 |
| 20260904085824 | 62 | 228 | 0.0 | 0.0 | 0.00 | 0.00 | 0.00 | 90 | 1010.9 |
| 20260904085337 | 62 | 228 | 0.0 | 1.0 | 0.00 | 0.00 | 0.00 | 91 | 1010.9 |
| 20260904084837 | 62 | 228 | 0.0 | 1.0 | 0.00 | 0.00 | 0.00 | 91 | 1011.0 |
| 20260904084333 | 62 | 228 | 0.0 | 0.0 | 0.00 | 0.00 | 0.00 | 91 | 1010.9 |
| 20260904083829 | 62 | 228 | 0.0 | 0.0 | 0.00 | 0.00 | 0.00 | 90 | 1011.0 |
| 20260904083336 | 62 | 228 | 0.0 | 0.0 | 0.00 | 0.00 | 0.00 | 90 | 1010.9 |
| 20260904082830 | 62 | 228 | 0.0 | 0.0 | 0.00 | 0.00 | 0.00 | 90 | 1010.9 |
| 20260904082325 | 63 | 228 | 0.0 | 0.0 | 0.00 | 0.00 | 0.00 | 90 | 1010.9 |
| 20260904081826 | 62 | 228 | 0.0 | 0.0 | 0.00 | 0.00 | 0.00 | 90 | 1011.0 |
| 20260904081320 | 63 | 228 | 0.0 | 0.0 | 0.00 | 0.00 | 0.00 | 89 | 1011.0 |
| 20260904080837 | 63 | 228 | 0.0 | 0.0 | 0.00 | 0.00 | 0.00 | 89 | 1011.1 |
| 20260904080337 | 63 | 228 | 0.0 | 0.0 | 0.00 | 0.00 | 0.00 | 89 | 1011.1 |
| 20260904075835 | 63 | 228 | 0.0 | 0.0 | 0.00 | 0.00 | 0.00 | 89 | 1011.1 |
| 20260904075333 | 63 | 228 | 0.0 | 0.0 | 0.00 | 0.00 | 0.00 | 89 | 1011.2 |
| 20260904074852 | 63 | 228 | 0.0 | 0.0 | 0.00 | 0.00 | 0.00 | 88 | 1011.1 |
| 20260904074329 | 63 | 228 | 0.0 | 0.0 | 0.00 | 0.00 | 0.00 | 88 | 1011.1 |
| 20260904073828 | 63 | 228 | 0.0 | 0.0 | 0.00 | 0.00 | 0.00 | 88 | 1011.1 |
| 20260904073331 | 63 | 228 | 0.0 | 0.0 | 0.00 | 0.00 | 0.00 | 88 | 1011.1 |
| 20260904072829 | 63 | 228 | 0.0 | 0.0 | 0.00 | 0.00 | 0.00 | 88 | 1011.1 |
| 20260904072350 | 63 | 228 | 0.0 | 0.0 | 0.00 | 0.00 | 0.00 | 88 | 1011.1 |
| 20260904071847 | 63 | 228 | 0.0 | 0.0 | 0.00 | 0.00 | 0.00 | 87 | 1011.1 |
| 20260904071326 | 63 | 228 | 0.0 | 0.0 | 0.00 | 0.00 | 0.00 | 87 | 1011.0 |
| 20260904070821 | 64 | 228 | 0.0 | 0.0 | 0.00 | 0.00 | 0.00 | 87 | 1011.1 |
| 20260904070338 | 64 | 228 | 0.0 | 0.0 | 0.00 | 0.00 | 0.00 | 87 | 1011.0 |
| 20260904065839 | 64 | 228 | 0.0 | 0.0 | 0.00 | 0.00 | 0.00 | 87 | 1011.0 |
| 20260904065337 | 64 | 228 | 0.0 | 0.0 | 0.00 | 0.00 | 0.00 | 86 | 1010.9 |
| 20260904064837 | 64 | 228 | 0.0 | 0.0 | 0.00 | 0.00 | 0.00 | 86 | 1011.1 |
| 20260904064334 | 64 | 228 | 0.0 | 0.0 | 0.00 | 0.00 | 0.00 | 86 | 1011.1 |
| 20260904063853 | 64 | 226 | 0.0 | 0.0 | 0.00 | 0.00 | 0.00 | 86 | 1011.1 |
| 20260904063331 | 64 | 226 | 0.0 | 0.0 | 0.00 | 0.00 | 0.00 | 86 | 1011.0 |
| 20260904062850 | 64 | 225 | 0.0 | 0.0 | 0.00 | 0.00 | 0.00 | 86 | 1011.0 |
| 20260904062347 | 64 | 225 | 0.0 | 0.0 | 0.00 | 0.00 | 0.00 | 86 | 1010.9 |
| 20260904061825 | 65 | 225 | 0.0 | 0.0 | 0.00 | 0.00 | 0.00 | 86 | 1010.9 |
| 20260904061323 | 65 | 225 | 0.0 | 0.0 | 0.00 | 0.00 | 0.00 | 86 | 1010.9 |
| 20260904060823 | 65 | 225 | 0.0 | 0.0 | 0.00 | 0.00 | 0.00 | 86 | 1011.0 |
| 20260904060322 | 65 | 225 | 0.0 | 0.0 | 0.00 | 0.00 | 0.00 | 85 | 1011.0 |
| 20260904055838 | 65 | 225 | 0.0 | 0.0 | 0.00 | 0.00 | 0.00 | 84 | 1011.0 |
| 20260904055337 | 66 | 225 | 0.0 | 0.0 | 0.00 | 0.00 | 0.00 | 85 | 1010.9 |
| 20260904054835 | 66 | 226 | 0.0 | 0.0 | 0.00 | 0.00 | 0.00 | 84 | 1010.9 |
| 20260904054332 | 66 | 225 | 0.0 | 0.0 | 0.00 | 0.00 | 0.00 | 83 | 1011.0 |
| 20260904053836 | 66 | 226 | 0.0 | 0.0 | 0.00 | 0.00 | 0.00 | 82 | 1011.0 |
| 20260904053335 | 66 | 226 | 0.0 | 0.0 | 0.00 | 0.00 | 0.00 | 82 | 1011.0 |
| 20260904052835 | 67 | 225 | 0.0 | 0.0 | 0.00 | 0.00 | 0.00 | 82 | 1011.1 |
| 20260904052355 | 67 | 226 | 0.0 | 0.0 | 0.00 | 0.00 | 0.00 | 81 | 1011.0 |
| 20260904051834 | 67 | 225 | 0.0 | 0.0 | 0.00 | 0.00 | 0.00 | 81 | 1011.0 |
| 20260904051332 | 67 | 226 | 0.0 | 0.0 | 0.00 | 0.00 | 0.00 | 80 | 1010.9 |
| 20260904050833 | 67 | 225 | 0.0 | 0.0 | 0.00 | 0.00 | 0.00 | 79 | 1010.9 |
| 20260904050353 | 67 | 226 | 0.0 | 0.0 | 0.00 | 0.00 | 0.00 | 79 | 1010.9 |
| 20260904045829 | 68 | 225 | 0.0 | 0.0 | 0.00 | 0.00 | 0.00 | 78 | 1010.9 |
| 20260904045329 | 68 | 225 | 0.0 | 0.0 | 0.00 | 0.00 | 0.00 | 78 | 1010.9 |
| 20260904044828 | 68 | 226 | 0.0 | 0.0 | 0.00 | 0.00 | 0.00 | 77 | 1010.9 |
| 20260904044327 | 68 | 225 | 0.0 | 0.0 | 0.00 | 0.00 | 0.00 | 77 | 1010.7 |
| 20260904043827 | 68 | 226 | 0.0 | 0.0 | 0.00 | 0.00 | 0.00 | 77 | 1010.8 |
| 20260904043345 | 68 | 225 | 0.0 | 0.0 | 0.00 | 0.00 | 0.00 | 76 | 1010.7 |
| 20260904042824 | 69 | 225 | 0.0 | 0.0 | 0.00 | 0.00 | 0.00 | 76 | 1010.7 |
| 20260904042321 | 69 | 225 | 0.0 | 0.0 | 0.00 | 0.00 | 0.00 | 76 | 1010.7 |
| 20260904041821 | 69 | 226 | 0.0 | 0.0 | 0.00 | 0.00 | 0.00 | 75 | 1010.7 |
| 20260904041326 | 69 | 226 | 0.0 | 0.0 | 0.00 | 0.00 | 0.00 | 75 | 1010.7 |
| 20260904040824 | 69 | 226 | 0.0 | 0.0 | 0.00 | 0.00 | 0.00 | 75 | 1010.6 |
| 20260904040323 | 70 | 226 | 0.0 | 0.0 | 0.00 | 0.00 | 0.00 | 74 | 1010.6 |
| 20260904035822 | 70 | 229 | 0.0 | 0.0 | 0.00 | 0.00 | 0.00 | 74 | 1010.5 |
| 20260904035324 | 70 | 229 | 0.0 | 0.0 | 0.00 | 0.00 | 0.00 | 74 | 1010.5 |
| 20260904034843 | 70 | 229 | 0.0 | 0.0 | 0.00 | 0.00 | 0.00 | 73 | 1010.4 |
| 20260904034322 | 70 | 198 | 0.0 | 0.0 | 0.00 | 0.00 | 0.00 | 73 | 1010.3 |
| 20260904033821 | 71 | 139 | 0.0 | 0.0 | 0.00 | 0.00 | 0.00 | 73 | 1010.2 |
| 20260904033339 | 71 | 226 | 0.0 | 0.0 | 0.00 | 0.00 | 0.00 | 73 | 1010.1 |
| 20260904032838 | 71 | 246 | 0.0 | 0.0 | 0.00 | 0.00 | 0.00 | 72 | 1010.1 |
| 20260904032326 | 71 | 245 | 0.0 | 0.0 | 0.00 | 0.00 | 0.00 | 72 | 1010.1 |
| 20260904031833 | 71 | 245 | 0.0 | 0.0 | 0.00 | 0.00 | 0.00 | 72 | 1010.1 |
| 20260904031330 | 71 | 245 | 0.0 | 0.0 | 0.00 | 0.00 | 0.00 | 71 | 1010.1 |
| 20260904030829 | 72 | 245 | 0.0 | 0.0 | 0.00 | 0.00 | 0.00 | 71 | 1010.1 |
| 20260904030328 | 72 | 245 | 0.0 | 0.0 | 0.00 | 0.00 | 0.00 | 70 | 1010.1 |
| 20260904025825 | 72 | 245 | 0.0 | 0.0 | 0.00 | 0.00 | 0.00 | 70 | 1010.1 |
| 20260904025325 | 72 | 245 | 0.0 | 0.0 | 0.00 | 0.00 | 0.00 | 70 | 1010.1 |
| 20260904024829 | 72 | 243 | 0.0 | 0.0 | 0.00 | 0.00 | 0.00 | 69 | 1010.0 |
| 20260904024351 | 73 | 181 | 0.0 | 0.0 | 0.00 | 0.00 | 0.00 | 69 | 1010.1 |
| 20260904023830 | 73 | 184 | 0.0 | 0.0 | 0.00 | 0.00 | 0.00 | 69 | 1010.0 |
| 20260904023349 | 73 | 205 | 0.0 | 1.0 | 0.00 | 0.00 | 0.00 | 69 | 1010.0 |
| 20260904022826 | 73 | 205 | 0.0 | 1.0 | 0.00 | 0.00 | 0.00 | 68 | 1010.0 |
| 20260904022324 | 74 | 206 | 0.0 | 1.0 | 0.00 | 0.00 | 0.00 | 67 | 1009.9 |
| 20260904021824 | 74 | 138 | 0.0 | 2.0 | 0.00 | 0.00 | 0.00 | 67 | 1009.8 |
| 20260904021324 | 74 | 268 | 1.0 | 2.0 | 0.00 | 0.00 | 0.00 | 66 | 1009.9 |
| 20260904020823 | 74 | 208 | 0.0 | 1.0 | 0.00 | 0.00 | 0.00 | 66 | 1009.8 |
| 20260904020344 | 75 | 256 | 0.0 | 2.0 | 0.00 | 0.00 | 0.00 | 65 | 1009.9 |
| 20260904015824 | 75 | 269 | 1.0 | 2.0 | 0.00 | 0.00 | 0.00 | 65 | 1010.0 |
| 20260904015325 | 76 | 206 | 1.0 | 3.0 | 0.00 | 0.00 | 0.00 | 64 | 1010.0 |
| 20260904014824 | 76 | 174 | 1.0 | 3.0 | 0.00 | 0.00 | 0.00 | 64 | 1010.0 |
| 20260904014323 | 76 | 148 | 1.0 | 5.0 | 0.00 | 0.00 | 0.00 | 64 | 1010.1 |
| 20260904013822 | 76 | 220 | 1.0 | 5.0 | 0.00 | 0.00 | 0.00 | 63 | 1010.1 |
| 20260904013324 | 77 | 262 | 1.0 | 4.0 | 0.00 | 0.00 | 0.00 | 62 | 1010.0 |
| 20260904012821 | 77 | 247 | 2.0 | 4.0 | 0.00 | 0.00 | 0.00 | 62 | 1009.9 |
| 20260904012341 | 78 | 243 | 1.0 | 5.0 | 0.00 | 0.00 | 0.00 | 62 | 1009.9 |
| 20260904011823 | 77 | 150 | 1.0 | 5.0 | 0.00 | 0.00 | 0.00 | 62 | 1009.9 |
| 20260904011327 | 78 | 233 | 1.0 | 4.0 | 0.00 | 0.00 | 0.00 | 62 | 1009.9 |
| 20260904010827 | 78 | 210 | 1.0 | 4.0 | 0.00 | 0.00 | 0.00 | 62 | 1009.9 |
| 20260904010327 | 78 | 229 | 1.0 | 6.0 | 0.00 | 0.00 | 0.00 | 62 | 1009.9 |
| 20260904005845 | 78 | 216 | 3.0 | 6.0 | 0.00 | 0.00 | 0.00 | 62 | 1009.9 |
| 20260904005325 | 78 | 262 | 1.0 | 4.0 | 0.00 | 0.00 | 0.00 | 62 | 1010.0 |
| 20260904004845 | 78 | 295 | 1.0 | 4.0 | 0.00 | 0.00 | 0.00 | 62 | 1009.9 |
| 20260904004324 | 78 | 224 | 2.0 | 5.0 | 0.00 | 0.00 | 0.00 | 62 | 1009.9 |
| 20260904003830 | 78 | 223 | 1.0 | 6.0 | 0.00 | 0.00 | 0.00 | 62 | 1009.9 |
| 20260904003330 | 78 | 122 | 3.0 | 6.0 | 0.00 | 0.00 | 0.00 | 61 | 1009.9 |
| 20260904002831 | 79 | 198 | 0.0 | 4.0 | 0.00 | 0.00 | 0.00 | 61 | 1009.9 |
| 20260904002331 | 79 | 286 | 2.0 | 4.0 | 0.00 | 0.00 | 0.00 | 61 | 1009.9 |
| 20260904001828 | 79 | 200 | 1.0 | 4.0 | 0.00 | 0.00 | 0.00 | 60 | 1009.9 |
| 20260904001327 | 79 | 250 | 1.0 | 7.0 | 0.00 | 0.00 | 0.00 | 60 | 1009.9 |
| 20260904000827 | 79 | 229 | 3.0 | 7.0 | 0.00 | 0.00 | 0.00 | 60 | 1010.0 |
| 20260904000325 | 79 | 227 | 2.0 | 6.0 | 0.00 | 0.00 | 0.00 | 60 | 1010.0 |
| 20260903235826 | 79 | 290 | 2.0 | 10.0 | 0.00 | 0.00 | 0.00 | 60 | 1010.1 |
| 20260903235325 | 80 | 262 | 5.0 | 10.0 | 0.00 | 0.00 | 0.00 | 59 | 1010.0 |
| 20260903234846 | 80 | 249 | 2.0 | 5.0 | 0.00 | 0.00 | 0.00 | 59 | 1010.0 |
| 20260903234345 | 80 | 271 | 3.0 | 5.0 | 0.00 | 0.00 | 0.00 | 58 | 1010.0 |
| 20260903233827 | 80 | 165 | 2.0 | 5.0 | 0.00 | 0.00 | 0.00 | 58 | 1010.0 |
| 20260903233350 | 80 | 268 | 2.0 | 5.0 | 0.00 | 0.00 | 0.00 | 57 | 1010.2 |
| 20260903232829 | 80 | 187 | 2.0 | 5.0 | 0.00 | 0.00 | 0.00 | 56 | 1010.1 |
| 20260903232332 | 80 | 269 | 1.0 | 7.0 | 0.00 | 0.00 | 0.00 | 57 | 1010.1 |
| 20260903231834 | 81 | 241 | 2.0 | 7.0 | 0.00 | 0.00 | 0.00 | 56 | 1010.2 |
| 20260903231333 | 81 | 192 | 2.0 | 6.0 | 0.00 | 0.00 | 0.00 | 56 | 1010.2 |
| 20260903230834 | 81 | 281 | 2.0 | 5.0 | 0.00 | 0.00 | 0.00 | 55 | 1010.3 |
| 20260903230333 | 82 | 278 | 2.0 | 8.0 | 0.00 | 0.00 | 0.00 | 55 | 1010.3 |
| 20260903225853 | 81 | 198 | 2.0 | 8.0 | 0.00 | 0.00 | 0.00 | 55 | 1010.3 |
| 20260903225333 | 81 | 219 | 1.0 | 6.0 | 0.00 | 0.00 | 0.00 | 55 | 1010.3 |
| 20260903224831 | 82 | 251 | 3.0 | 6.0 | 0.00 | 0.00 | 0.00 | 54 | 1010.4 |
| 20260903224351 | 82 | 277 | 2.0 | 5.0 | 0.00 | 0.00 | 0.00 | 53 | 1010.4 |
| 20260903223328 | 82 | 235 | 3.0 | 10.0 | 0.00 | 0.00 | 0.00 | 51 | 1010.4 |
| 20260903222849 | 82 | 251 | 2.0 | 4.0 | 0.00 | 0.00 | 0.00 | 51 | 1010.5 |
| 20260903222325 | 82 | 297 | 1.0 | 5.0 | 0.00 | 0.00 | 0.00 | 51 | 1010.6 |